This demonstration page uses our WeatherBlox Daily Observations layout. Learn more.

Left ArrowRight Arrow

38.20091, -84.87328

Hourly Observations for July 15, 2020

Temp ( °F °C ) Dew Point ( °F °C ) Humidity (%) Winds ( mph kmh ) Pressure ( in mb ) Visibility ( mi km ) Precip ( " mm )
12:53 am 00:53 Clear 67 19.4 63 17.2 87 87 NNW 3 6 30.04 1017 10 16 0.00 0.00
1:53 am 01:53 Clear 65 18.3 61 16.1 87 87 Calm 30.04 1017 10 16 0.00 0.00
2:53 am 02:53 Clear 65 18.3 61 16.1 87 87 Calm 30.04 1017 10 16 0.00 0.00
3:53 am 03:53 Clear 64 17.8 61 16.1 90 90 Calm 30.04 1017 10 16 0.00 0.00
4:32 am 04:32 Clear with Mist and Fog 63 17.2 60 15.6 90 90 Calm 30.05 1018 3 4 0.00 0.00
4:40 am 04:40 Clear 64 17.8 60 15.6 87 87 Calm 30.05 1018 10 16 0.00 0.00
4:53 am 04:53 Clear 63 17.2 60 15.6 90 90 Calm 30.04 1017 10 16 0.00 0.00
5:53 am 05:53 Clear 64 17.8 61 16.1 90 90 Calm 30.04 1017 10 16 0.00 0.00
6:53 am 06:53 Sunny 62 16.7 59 15 90 90 Calm 30.04 1017 10 16 0.00 0.00
7:53 am 07:53 Sunny 69 20.6 64 17.8 84 84 Calm 30.05 1018 10 16 0.00 0.00
8:53 am 08:53 Sunny 75 23.9 65 18.3 71 71 Calm 30.07 1018 10 16 0.00 0.00
9:53 am 09:53 Sunny 81 27.2 66 18.9 61 61 SE 3 6 30.09 1019 10 16 0.00 0.00
10:53 am 10:53 Sunny 86 30 67 19.4 53 53 SE 7 11 30.07 1018 10 16 0.00 0.00
11:53 am 11:53 Sunny 87 30.6 64 17.8 46 46 SW 9 15 30.07 1018 10 16 0.00 0.00
12:53 pm 12:53 Sunny 89 31.7 63 17.2 42 42 ESE 6 9 30.06 1018 10 16 0.00 0.00
1:53 pm 13:53 Mostly Sunny 91 32.8 64 17.8 41 41 VRB 5 7 30.06 1018 10 16 0.00 0.00
2:53 pm 14:53 Sunny 91 32.8 64 17.8 41 41 W 6 9 30.04 1017 10 16 0.00 0.00
3:53 pm 15:53 Partly Cloudy 91 32.8 66 18.9 44 44 VRB 6 9 30.01 1016 10 16 0.00 0.00
4:53 pm 16:53 Partly Cloudy 91 32.8 65 18.3 42 42 SE 7 11 29.98 1015 10 16 0.00 0.00
5:53 pm 17:53 Mostly Cloudy 92 33.3 64 17.8 40 40 SSE 8 13 29.96 1015 10 16 0.00 0.00
6:53 pm 18:53 Sunny 90 32.2 65 18.3 44 44 S 8 13 29.95 1014 10 16 0.00 0.00
7:53 pm 19:53 Sunny 88 31.1 65 18.3 46 46 S 7 11 29.94 1014 10 16 0.00 0.00
8:53 pm 20:53 Sunny 82 27.8 66 18.9 58 58 S 5 7 29.95 1014 10 16 0.00 0.00
9:53 pm 21:53 Clear 79 26.1 67 19.4 67 67 Calm 29.96 1015 10 16 0.00 0.00
10:53 pm 22:53 Clear 81 27.2 66 18.9 61 61 SSE 7 11 29.96 1014 10 16 0.00 0.00
11:53 pm 23:53 Clear 77 25 66 18.9 69 69 SSW 3 6 29.97 1015 10 16 0.00 0.00

Powered by AerisWeather